EW9485 Weather Reports


Display with metric or nautical units.
time (UTC)temp
F
wind
direction
speed
MPH
gust
MPH
rain 1hr
in
rain 24hr
in
rain mn
in
humidity
%
barometer
mb
20260509203056 67 71 5.0 11.0 0.11 0.44 0.44 88 1012.2
20260509202550 67 82 4.0 11.0 0.13 0.44 0.44 88 1012.5
20260509202049 67 86 3.0 11.0 0.13 0.44 0.44 88 1012.8
20260509201557 67 78 4.0 11.0 0.13 0.44 0.44 88 1012.8
20260509201047 67 84 3.0 7.0 0.12 0.43 0.43 88 1012.9
20260509200547 67 90 2.0 8.0 0.12 0.43 0.43 89 1013.2
20260509195550 66 130 3.0 11.0 0.11 0.42 0.42 88 1013.2
20260509195047 66 106 5.0 11.0 0.10 0.41 0.41 88 1012.7
20260509194552 66 86 5.0 12.0 0.08 0.39 0.39 88 1012.9
20260509194047 66 46 5.0 15.0 0.06 0.37 0.37 88 1012.7
20260509193544 66 34 8.0 15.0 0.04 0.35 0.35 88 1012.8
20260509193057 66 5 6.0 13.0 0.02 0.33 0.33 88 1013.3
20260509192544 66 53 5.0 13.0 0.00 0.31 0.31 88 1013.6
20260509192048 66 24 6.0 13.0 0.00 0.31 0.31 88 1013.6
20260509191556 66 63 6.0 15.0 0.00 0.31 0.31 88 1013.7
20260509191047 66 9 7.0 15.0 0.01 0.31 0.31 88 1014.1
20260509190548 66 34 8.0 15.0 0.01 0.31 0.31 88 1014.3
20260509190107 66 20 7.0 18.0 0.01 0.31 0.31 88 1014.3
20260509185547 66 21 9.0 18.0 0.01 0.31 0.31 88 1014.3
20260509185047 66 11 10.0 14.0 0.01 0.31 0.31 89 1014.4
20260509184557 66 348 8.0 14.0 0.01 0.31 0.31 89 1014.4
20260509184047 66 27 9.0 18.0 0.02 0.31 0.31 89 1014.3
20260509183548 66 360 8.0 18.0 0.03 0.31 0.31 89 1014.3
20260509183056 66 46 8.0 18.0 0.05 0.31 0.31 89 1014.3
20260509182544 66 33 8.0 20.0 0.09 0.31 0.31 89 1014.5
20260509182047 66 5 11.0 20.0 0.12 0.31 0.31 89 1014.3
20260509181550 66 62 9.0 17.0 0.16 0.31 0.31 89 1014.4
20260509181047 66 360 11.0 16.0 0.19 0.30 0.30 89 1014.4
20260509180549 66 22 10.0 16.0 0.26 0.30 0.30 89 1014.3
20260509175548 66 9 9.0 16.0 0.28 0.30 0.30 89 1014.5
20260509175048 66 20 10.0 16.0 0.28 0.30 0.30 88 1014.9
20260509174555 66 5 6.0 15.0 0.28 0.30 0.30 88 1015.0
20260509174046 65 360 8.0 15.0 0.28 0.29 0.29 88 1015.2
20260509173546 65 10 9.0 18.0 0.27 0.28 0.28 88 1015.1
20260509173056 65 28 10.0 18.0 0.25 0.26 0.26 88 1015.3
20260509172547 66 27 9.0 21.0 0.21 0.21 0.21 87 1015.3
20260509172047 66 11 10.0 22.0 0.19 0.19 0.19 87 1015.1
20260509171555 66 9 12.0 22.0 0.14 0.14 0.14 86 1015.0
20260509171046 67 360 12.0 25.0 0.11 0.11 0.11 86 1015.1
20260509170546 67 25 11.0 25.0 0.04 0.04 0.04 85 1015.0
20260509165547 69 334 9.0 17.0 0.02 0.02 0.02 85 1014.7
20260509165046 70 42 9.0 17.0 0.02 0.02 0.02 84 1014.6
20260509164554 71 360 7.0 14.0 0.02 0.02 0.02 84 1014.5
20260509164049 72 71 8.0 14.0 0.01 0.01 0.01 84 1014.1
20260509163547 73 40 6.0 11.0 0.01 0.01 0.01 84 1014.2
20260509163106 73 360 5.0 11.0 0.01 0.01 0.01 84 1014.2
20260509162548 74 5 5.0 10.0 0.00 0.00 0.00 85 1014.2
20260509162047 74 58 2.0 5.0 0.00 0.00 0.00 85 1013.9
20260509161557 74 0 0.0 6.0 0.00 0.00 0.00 85 1014.2
20260509161051 74 82 2.0 8.0 0.00 0.00 0.00 85 1014.2
20260509160547 74 98 2.0 9.0 0.00 0.00 0.00 85 1014.1
20260509160058 74 67 3.0 9.0 0.00 0.00 0.00 85 1014.1
20260509155547 74 88 2.0 8.0 0.00 0.00 0.00 84 1014.0
20260509155049 74 82 2.0 8.0 0.00 0.00 0.00 84 1013.9
20260509154606 74 98 3.0 8.0 0.00 0.00 0.00 84 1013.9
20260509154046 74 103 4.0 8.0 0.00 0.00 0.00 84 1013.9
20260509153547 74 104 3.0 7.0 0.00 0.00 0.00 84 1013.9
20260509153056 74 107 2.0 6.0 0.00 0.00 0.00 83 1014.0
20260509152547 74 111 1.0 4.0 0.00 0.00 0.00 84 1014.1
20260509152045 73 111 1.0 4.0 0.00 0.00 0.00 84 1014.1
20260509151610 73 0 2.0 4.0 0.00 0.00 0.00 84 1013.9
20260509151048 73 171 0.0 4.0 0.00 0.00 0.00 84 1013.9
20260509150547 73 42 2.0 4.0 0.00 0.00 0.00 85 1013.9
20260509150110 72 102 1.0 4.0 0.00 0.00 0.00 85 1013.9
20260509145548 72 69 1.0 5.0 0.00 0.00 0.00 85 1013.8
20260509145046 72 86 2.0 6.0 0.00 0.00 0.00 85 1013.7
20260509144604 72 61 2.0 9.0 0.00 0.00 0.00 86 1013.8
20260509144048 72 65 4.0 9.0 0.00 0.00 0.00 86 1013.5
20260509143548 71 53 3.0 9.0 0.00 0.00 0.00 86 1013.5
20260509143105 71 25 3.0 9.0 0.00 0.00 0.00 86 1013.4
20260509142544 71 50 3.0 7.0 0.00 0.00 0.00 86 1013.4
20260509142048 71 80 3.0 7.0 0.00 0.00 0.00 86 1013.6
20260509141555 70 20 4.0 7.0 0.00 0.00 0.00 86 1013.6
20260509141046 70 24 2.0 7.0 0.00 0.00 0.00 86 1013.6
20260509140544 70 55 3.0 8.0 0.00 0.00 0.00 86 1013.4
20260509140104 70 80 4.0 9.0 0.00 0.00 0.00 86 1013.2
20260509135548 70 38 3.0 9.0 0.00 0.00 0.00 86 1013.4
20260509135048 69 74 3.0 11.0 0.00 0.00 0.00 86 1013.4
20260509134555 69 44 5.0 13.0 0.00 0.00 0.00 86 1013.6
20260509134047 69 19 5.0 13.0 0.00 0.00 0.00 86 1013.8
20260509133547 69 355 8.0 13.0 0.00 0.00 0.00 86 1014.1
20260509133100 69 5 5.0 12.0 0.00 0.00 0.00 86 1014.2
20260509132543 69 360 4.0 14.0 0.00 0.00 0.00 86 1013.7
20260509132048 69 5 8.0 14.0 0.00 0.00 0.00 86 1013.5
20260509131554 70 360 7.0 12.0 0.00 0.00 0.00 87 1013.3
20260509131048 70 24 6.0 14.0 0.00 0.00 0.00 87 1012.9
20260509130544 70 24 8.0 14.0 0.00 0.00 0.00 87 1012.8
20260509130058 70 34 5.0 10.0 0.00 0.00 0.00 87 1012.7
20260509125543 70 59 1.0 7.0 0.00 0.00 0.00 88 1012.4
20260509125047 70 82 2.0 7.0 0.00 0.00 0.00 88 1012.2
20260509124558 70 53 2.0 5.0 0.00 0.00 0.00 88 1012.2
20260509124049 70 78 2.0 5.0 0.00 0.00 0.00 88 1012.1
20260509123548 70 85 1.0 3.0 0.00 0.00 0.00 88 1011.9
20260509123103 69 143 0.0 5.0 0.00 0.00 0.00 88 1011.9
20260509122547 69 0 0.0 7.0 0.00 0.00 0.00 88 1011.8
20260509122044 69 153 3.0 7.0 0.00 0.00 0.00 88 1011.7
20260509121558 69 131 3.0 7.0 0.00 0.00 0.00 88 1011.6
20260509121049 68 132 2.0 6.0 0.00 0.00 0.00 88 1011.6
20260509120548 68 142 1.0 4.0 0.00 0.00 0.00 87 1011.8
20260509120052 68 143 0.0 4.0 0.00 0.00 0.00 87 1012.0
20260509115549 68 0 0.0 0.0 0.00 0.00 0.00 87 1011.8
20260509115047 67 0 0.0 1.0 0.00 0.00 0.00 87 1012.0
20260509114603 67 0 0.0 2.0 0.00 0.00 0.00 86 1012.1
20260509114046 67 0 0.0 2.0 0.00 0.00 0.00 86 1011.9
20260509113550 67 0 0.0 0.0 0.00 0.00 0.00 86 1011.7
20260509113059 67 0 0.0 0.0 0.00 0.00 0.00 86 1011.8
20260509112545 67 0 0.0 2.0 0.00 0.00 0.00 86 1011.7
20260509112046 67 0 0.0 2.0 0.00 0.00 0.00 86 1011.6
20260509111555 67 74 1.0 2.0 0.00 0.00 0.00 86 1011.3
20260509111047 68 69 0.0 3.0 0.00 0.00 0.00 85 1011.6
20260509110547 68 67 0.0 3.0 0.00 0.00 0.00 85 1011.8
20260509110053 68 68 1.0 4.0 0.00 0.00 0.00 85 1011.8
20260509105548 68 53 1.0 5.0 0.00 0.00 0.00 85 1011.9
20260509105045 68 30 2.0 5.0 0.00 0.00 0.00 85 1012.0
20260509104556 68 40 1.0 5.0 0.00 0.00 0.00 85 1011.8
20260509104044 68 10 2.0 5.0 0.00 0.00 0.00 85 1012.0
20260509103548 69 40 2.0 6.0 0.00 0.00 0.00 84 1011.9
20260509103051 69 27 2.0 7.0 0.00 0.00 0.00 84 1011.9
20260509102546 69 44 2.0 7.0 0.00 0.00 0.00 84 1011.9
20260509102045 69 44 2.0 5.0 0.00 0.00 0.00 84 1011.9
20260509101554 69 48 1.0 7.0 0.00 0.00 0.00 84 1011.7
20260509101044 69 36 2.0 7.0 0.00 0.00 0.00 83 1011.8
20260509100544 70 46 4.0 8.0 0.00 0.00 0.00 84 1011.9
20260509100048 70 12 3.0 10.0 0.00 0.00 0.00 84 1012.1
20260509095548 71 22 5.0 10.0 0.00 0.00 0.00 84 1012.1
20260509095046 71 345 4.0 8.0 0.00 0.00 0.00 84 1012.3
20260509094553 71 10 1.0 4.0 0.00 0.00 0.00 84 1011.8
20260509094048 71 0 0.0 2.0 0.00 0.00 0.00 83 1011.7
20260509093548 71 0 0.0 5.0 0.00 0.00 0.00 83 1011.8
20260509093056 71 0 0.0 8.0 0.00 0.00 0.00 83 1011.6
20260509092548 71 156 2.0 8.0 0.00 0.00 0.00 83 1011.4
20260509092048 72 155 2.0 7.0 0.00 0.00 0.00 82 1011.5
20260509091558 72 0 0.0 3.0 0.00 0.00 0.00 82 1011.9
20260509091048 72 24 0.0 3.0 0.00 0.00 0.00 81 1011.9
20260509090548 72 0 0.0 4.0 0.00 0.00 0.00 81 1011.7
20260509090106 72 0 1.0 4.0 0.00 0.00 0.00 81 1011.8
20260509085548 73 34 1.0 4.0 0.00 0.00 0.00 81 1011.9
20260509085044 73 33 2.0 4.0 0.00 0.00 0.00 81 1012.0
20260509084551 73 76 0.0 3.0 0.00 0.00 0.00 81 1012.1
20260509084046 73 0 0.0 3.0 0.00 0.00 0.00 81 1012.0
20260509083544 73 76 0.0 5.0 0.00 0.00 0.00 81 1012.0
20260509083057 73 76 0.0 5.0 0.00 0.00 0.00 81 1012.0
20260509082544 73 74 1.0 5.0 0.00 0.00 0.00 82 1012.0
20260509082045 73 84 0.0 7.0 0.00 0.00 0.00 82 1011.9
20260509081556 73 0 1.0 9.0 0.00 0.00 0.00 82 1011.7
20260509081047 73 0 2.0 11.0 0.00 0.00 0.00 82 1011.6
20260509080545 73 0 4.0 11.0 0.00 0.00 0.00 82 1011.5
20260509080110 72 184 3.0 10.0 0.00 0.00 0.00 82 1011.4
20260509075544 73 136 1.0 8.0 0.00 0.00 0.00 83 1011.5
20260509075052 73 148 1.0 11.0 0.00 0.00 0.00 83 1011.4
20260509074554 72 146 4.0 15.0 0.00 0.00 0.00 83 1011.2
20260509074047 72 164 5.0 17.0 0.00 0.00 0.00 83 1011.1
20260509073549 72 159 6.0 17.0 0.00 0.00 0.00 83 1011.0
20260509073105 72 159 7.0 17.0 0.00 0.00 0.00 84 1010.8
20260509072547 72 155 6.0 12.0 0.00 0.00 0.00 84 1011.2
20260509072045 72 158 4.0 10.0 0.00 0.00 0.00 84 1011.5
20260509071552 71 163 3.0 10.0 0.00 0.00 0.00 84 1011.6
20260509071045 71 141 4.0 10.0 0.00 0.00 0.00 84 1011.5
20260509070545 71 155 2.0 9.0 0.00 0.00 0.00 84 1011.7
20260509070056 71 149 2.0 9.0 0.00 0.00 0.00 84 1011.7
20260509065544 71 141 4.0 14.0 0.00 0.00 0.00 84 1011.7
20260509065044 71 156 5.0 14.0 0.00 0.00 0.00 84 1011.7
20260509064552 71 140 5.0 9.0 0.00 0.00 0.00 85 1011.7
20260509064051 70 153 3.0 11.0 0.00 0.00 0.00 84 1011.7
20260509063546 70 159 6.0 15.0 0.00 0.00 0.00 84 1011.7
20260509063103 70 140 5.0 17.0 0.00 0.00 0.00 84 1011.7
20260509062547 70 147 8.0 17.0 0.00 0.00 0.00 84 1011.7
20260509062044 70 152 7.0 17.0 0.00 0.00 0.00 84 1011.8
20260509061559 69 169 7.0 17.0 0.00 0.00 0.00 84 1011.8
20260509061045 69 146 8.0 17.0 0.00 0.00 0.00 84 1011.8
20260509060545 69 155 8.0 17.0 0.00 0.00 0.00 85 1011.8
20260509060056 69 157 7.0 14.0 0.00 0.00 0.00 85 1012.1
20260509055545 69 148 6.0 14.0 0.00 0.00 0.00 85 1012.3
20260509055050 69 150 6.0 13.0 0.00 0.00 0.00 85 1012.5
20260509054553 69 163 3.0 10.0 0.00 0.00 0.00 85 1012.9
20260509054047 69 142 4.0 15.0 0.00 0.00 0.00 85 1013.0
20260509053545 69 170 5.0 15.0 0.00 0.00 0.00 86 1013.0
20260509053052 69 188 5.0 11.0 0.00 0.00 0.00 86 1013.2
20260509052544 69 161 2.0 15.0 0.00 0.00 0.00 86 1013.3
20260509052132 69 165 6.0 15.0 0.00 0.00 0.00 86 1013.1
20260509051602 69 140 5.0 12.0 0.00 0.00 0.00 86 1013.1
20260509051044 69 141 6.0 13.0 0.00 0.00 0.00 86 1013.2
20260509050544 69 141 5.0 13.0 0.00 0.00 0.00 87 1013.4
20260509050101 69 145 5.0 12.0 0.00 0.00 0.00 87 1013.7
20260509045547 69 138 4.0 12.0 0.00 0.00 0.00 87 1013.7
20260509045046 68 143 3.0 9.0 0.00 0.00 0.00 87 1013.9
20260509044554 68 136 2.0 5.0 0.00 0.00 0.00 87 1014.2
20260509044044 68 0 0.0 0.0 0.00 0.00 0.00 86 1014.3
20260509043550 68 0 0.0 0.0 0.00 0.00 0.00 86 1014.3
20260509043049 68 0 0.0 0.0 0.00 0.00 0.00 86 1014.7
20260509042548 68 0 0.0 0.0 0.00 0.00 0.00 86 1015.1
20260509042047 68 0 0.0 0.0 0.00 0.00 0.00 86 1015.2
20260509041553 68 0 0.0 0.0 0.00 0.00 0.00 86 1015.3
20260509041046 68 0 0.0 0.0 0.00 0.00 0.00 87 1015.4
20260509040548 68 0 0.0 0.0 0.00 0.00 0.00 87 1015.4
20260509040056 68 0 0.0 0.0 0.00 0.00 0.00 87 1015.5
20260509035547 68 0 0.0 0.0 0.00 0.00 0.00 87 1015.3
20260509035047 68 0 0.0 3.0 0.00 0.00 0.00 87 1015.4
20260509034549 68 0 0.0 3.0 0.00 0.00 0.00 87 1015.2
20260509034046 68 0 1.0 3.0 0.00 0.00 0.00 87 1015.4
20260509033547 68 0 1.0 7.0 0.00 0.00 0.00 87 1015.1
20260509033107 68 0 1.0 7.0 0.00 0.00 0.00 87 1015.1
20260509032547 68 115 2.0 7.0 0.00 0.00 0.00 87 1014.9
20260509032052 68 0 2.0 7.0 0.00 0.00 0.00 86 1014.8
20260509031553 68 107 2.0 5.0 0.00 0.00 0.00 86 1014.7
20260509031048 68 98 1.0 7.0 0.00 0.00 0.00 86 1014.8
20260509030545 68 97 2.0 8.0 0.00 0.00 0.00 86 1014.8
20260509030052 68 140 1.0 8.0 0.00 0.00 0.00 86 1014.6
20260509025546 68 103 2.0 6.0 0.00 0.00 0.00 86 1014.5
20260509025047 68 84 2.0 9.0 0.00 0.00 0.00 86 1014.4
20260509024558 68 91 2.0 11.0 0.00 0.00 0.00 86 1014.5
20260509024047 68 103 3.0 11.0 0.00 0.00 0.00 86 1014.4
20260509023546 68 109 3.0 11.0 0.00 0.00 0.00 86 1014.3
20260509023050 68 103 3.0 9.0 0.00 0.00 0.00 86 1014.2
20260509022547 68 104 4.0 9.0 0.00 0.00 0.00 86 1014.6
20260509022047 68 0 2.0 9.0 0.00 0.00 0.00 86 1014.5
20260509021555 68 101 5.0 10.0 0.00 0.00 0.00 86 1014.5
20260509021049 68 109 5.0 10.0 0.00 0.00 0.00 86 1014.4
20260509020547 68 101 3.0 8.0 0.00 0.00 0.00 85 1014.5
20260509020055 68 77 5.0 8.0 0.00 0.00 0.00 85 1014.6
20260509015548 68 72 2.0 9.0 0.00 0.00 0.00 85 1014.5
20260509015048 68 68 3.0 9.0 0.00 0.00 0.00 85 1014.1
20260509014553 68 42 4.0 9.0 0.00 0.00 0.00 85 1014.2
20260509014052 69 30 4.0 13.0 0.00 0.00 0.00 85 1014.6
20260509013548 69 360 4.0 13.0 0.00 0.00 0.00 85 1014.8
20260509013055 69 42 7.0 13.0 0.00 0.00 0.00 85 1014.5
20260509012547 69 30 5.0 12.0 0.00 0.00 0.00 84 1014.5
20260509012045 69 5 7.0 12.0 0.00 0.00 0.00 84 1014.4
20260509011556 69 17 6.0 12.0 0.00 0.00 0.00 84 1014.5
20260509011046 69 21 4.0 10.0 0.00 0.00 0.00 84 1014.5
20260509010547 70 17 5.0 11.0 0.00 0.00 0.00 84 1014.6
20260509010051 70 12 2.0 11.0 0.00 0.00 0.00 83 1014.7
20260509005547 70 56 4.0 10.0 0.00 0.00 0.00 84 1014.7
20260509005047 70 30 4.0 11.0 0.00 0.00 0.00 83 1014.8
20260509004556 70 23 5.0 13.0 0.00 0.00 0.00 83 1014.7
20260509004048 70 5 5.0 15.0 0.00 0.00 0.00 83 1014.8
20260509003547 70 23 7.0 15.0 0.00 0.00 0.00 83 1014.8
20260509003048 71 342 10.0 15.0 0.00 0.00 0.00 82 1014.6
20260509002549 71 5 6.0 13.0 0.00 0.00 0.00 82 1014.7
20260509002047 71 10 7.0 13.0 0.00 0.00 0.00 82 1014.7
20260509001556 71 5 7.0 13.0 0.00 0.00 0.00 82 1014.6
20260509001047 71 31 7.0 13.0 0.00 0.00 0.00 82 1014.5
20260509000547 71 345 6.0 11.0 0.00 0.00 0.00 82 1014.5
20260509000051 72 20 6.0 11.0 0.00 0.00 0.00 81 1014.5
20260508235547 72 19 6.0 14.0 0.00 0.00 0.00 81 1014.3
20260508235048 72 11 9.0 14.0 0.00 0.00 0.00 81 1014.2
20260508234552 72 28 5.0 11.0 0.00 0.00 0.00 81 1014.1
20260508234051 72 18 5.0 9.0 0.00 0.00 0.00 81 1014.1
20260508233548 72 19 4.0 7.0 0.00 0.00 0.00 81 1014.2
20260508233102 72 22 3.0 8.0 0.00 0.00 0.00 80 1014.3
20260508232548 72 5 3.0 9.0 0.00 0.00 0.00 80 1014.0
20260508232045 72 10 3.0 9.0 0.00 0.00 0.00 80 1014.0
20260508231556 73 32 5.0 11.0 0.00 0.00 0.00 80 1013.9
20260508231044 73 38 4.0 12.0 0.00 0.00 0.00 80 1014.1
20260508230544 73 345 8.0 12.0 0.00 0.00 0.00 80 1014.2
20260508230052 73 355 4.0 12.0 0.00 0.00 0.00 80 1014.2
20260508225547 73 26 7.0 14.0 0.00 0.00 0.00 79 1014.2
20260508225047 73 344 8.0 15.0 0.00 0.00 0.00 79 1014.2
20260508224609 73 355 9.0 15.0 0.00 0.00 0.00 78 1014.2
20260508224047 73 338 9.0 13.0 0.00 0.00 0.00 78 1014.5
20260508223547 74 339 7.0 18.0 0.00 0.00 0.00 77 1014.4
20260508223052 74 321 8.0 18.0 0.00 0.00 0.00 76 1014.4
20260508222547 75 325 12.0 18.0 0.00 0.00 0.00 75 1014.3
20260508222048 76 310 9.0 17.0 0.00 0.00 0.00 74 1014.4
20260508221608 77 340 10.0 17.0 0.00 0.00 0.00 72 1014.2
20260508221048 79 332 8.0 15.0 0.00 0.00 0.00 72 1014.0
20260508220547 80 282 3.0 8.0 0.00 0.00 0.00 74 1013.7
20260508220055 81 259 4.0 8.0 0.00 0.00 0.00 73 1013.5
20260508215551 81 285 3.0 9.0 0.00 0.02 0.00 73 1013.5
20260508215048 81 240 3.0 9.0 0.00 0.02 0.00 72 1013.3
20260508214551 82 252 6.0 9.0 0.00 0.02 0.00 71 1013.4
20260508214049 82 321 4.0 9.0 0.00 0.02 0.00 71 1013.2
20260508213547 82 215 2.0 8.0 0.00 0.02 0.00 71 1013.3
20260508213055 82 225 3.0 9.0 0.00 0.02 0.00 71 1013.4
20260508212547 82 197 5.0 9.0 0.00 0.02 0.00 71 1013.4
20260508212049 82 223 4.0 8.0 0.00 0.02 0.00 71 1013.3
20260508211555 82 220 4.0 8.0 0.00 0.02 0.00 72 1013.2
20260508211045 82 234 4.0 8.0 0.00 0.02 0.00 71 1013.2
20260508210548 83 237 4.0 8.0 0.00 0.02 0.00 70 1013.1
20260508210057 83 242 2.0 8.0 0.00 0.02 0.00 74 1013.1
20260508205544 84 169 3.0 6.0 0.00 0.02 0.00 69 1013.2
20260508205047 83 244 3.0 5.0 0.00 0.02 0.00 71 1013.1
20260508204554 82 192 2.0 7.0 0.00 0.02 0.00 72 1013.1
20260508204048 82 164 4.0 7.0 0.00 0.02 0.00 71 1013.0